Stations météo

réclame
Mon MeteoGroup
K14A, Pays-Bas (6204): Température de l'air & dewpoint: 19.02.2018 00:00:00 - 25.02.2018 00:00:00 (CET)K14A, Pays-Bas (6204): Vitesse du vent & gusts: 19.02.2018 00:00:00 - 25.02.2018 00:00:00 (CET)K14A, Pays-Bas (6204): Direction du vent: 19.02.2018 00:00:00 - 25.02.2018 00:00:00 (CET)K14A, Pays-Bas (6204): reduced air pressure: 19.02.2018 00:00:00 - 25.02.2018 00:00:00 (CET)K14A, Pays-Bas (6204): visibility: 19.02.2018 00:00:00 - 25.02.2018 00:00:00 (CET)
Date & Time tt [°C] td [°C] ff [km/h] ff [knt] fx [km/h] fx [knt] dd ppp [hPa] vv [km]
25.02.2018 00:00:00 1,4 -6,4 52 28 54 29 E 1030,5 10
24.02.2018 23:00:00 2,0 -5,4 54 29 54 29 E 1030,4 10
24.02.2018 22:00:00 2,2 -6,2 55 30 54 29 E 1029,9 10
24.02.2018 21:00:00 2,6 -5,0 54 29 54 29 E 1029,6 10
24.02.2018 20:00:00 2,6 -3,5 52 28 54 29 E 1029,3 10
24.02.2018 19:00:00 2,8 -3,0 52 28 54 29 E 1029,1 10
24.02.2018 18:00:00 2,8 -2,4 43 23 50 27 E 1028,6 44
24.02.2018 17:00:00 2,5 -2,1 48 26 50 27 E 1028,4 10
24.02.2018 16:00:00 2,2 -2,4 48 26 47 25 E 1028,4 10
24.02.2018 15:00:00 1,9 -2,3 48 26 50 27 E 1028,3 10
24.02.2018 14:00:00 1,6 -3,1 50 27 50 27 E 1028,5 10
24.02.2018 13:00:00 1,7 -3,5 52 28 54 29 E 1028,4 10
24.02.2018 12:00:00 1,6 -4,3 54 29 54 29 E 1028,4 10
24.02.2018 11:00:00 1,4 -5,5 52 28 50 27 E 1028,1 10
24.02.2018 10:00:00 1,4 -5,9 54 29 54 29 E 1027,7 10
24.02.2018 09:00:00 1,5 -4,9 57 31 58 31 E 1027,1 10
24.02.2018 08:00:00 1,5 -5,8 54 29 54 29 E 1026,4 10
24.02.2018 07:00:00 1,4 -5,8 52 28 54 29 E 1026,0 10
24.02.2018 06:00:00 1,4 -5,0 52 28 50 27 E 1025,3 10
24.02.2018 05:00:00 1,2 -5,1 50 27 47 25 E 1025,2 10
24.02.2018 04:00:00 1,2 -4,7 48 26 50 27 E 1024,9 10
24.02.2018 03:00:00 1,3 -4,5 52 28 54 29 E 1024,8 10
24.02.2018 02:00:00 1,7 -3,9 48 26 50 27 E 1025,0 10
24.02.2018 01:00:00 1,8 -3,9 50 27 50 27 E 1024,8 10
24.02.2018 00:00:00 1,9 -3,6 50 27 54 29 E 1024,7 10
23.02.2018 23:00:00 2,0 -3,9 54 29 54 29 E 1024,4 10
23.02.2018 22:00:00 2,0 -3,8 52 28 50 27 E 1024,3 10
23.02.2018 21:00:00 2,3 -3,4 48 26 47 25 E 1024,2 10
23.02.2018 20:00:00 2,4 -3,1 40 21 47 25 E 1024,2 39
23.02.2018 19:00:00 2,6 -2,9 46 25 47 25 E 1024,0 10
23.02.2018 18:00:00 2,6 -3,0 46 25 47 25 ENE 1023,7 10
23.02.2018 17:00:00 2,5 -3,3 42 23 43 23 ENE 1023,8 10
23.02.2018 16:00:00 2,4 -3,8 32 18 40 21 E 1024,1 26
23.02.2018 15:00:00 2,6 -4,2 35 19 36 19 E 1024,8 10
23.02.2018 14:00:00 2,5 -4,1 32 18 43 23 E 1024,9 42
23.02.2018 13:00:00 2,6 -4,8 37 20 40 21 E 1025,3 10
23.02.2018 12:00:00 2,7 -4,9 37 20 40 21 E 1025,9 10
23.02.2018 11:00:00 2,6 -5,0 39 21 47 25 E 1026,1 10
23.02.2018 10:00:00 2,8 -3,9 39 21 43 23 E 1026,2 10
23.02.2018 09:00:00 2,1 -3,6 29 16 36 19 E 1026,0 42
23.02.2018 08:00:00 2,4 -2,4 29 16 32 18 E 1025,8 10
23.02.2018 07:00:00 2,3 -2,7 31 17 36 19 E 1025,4 10
23.02.2018 06:00:00 2,9 -1,6 28 15 32 18 E 1025,2 10
23.02.2018 05:00:00 2,8 -1,5 29 16 32 18 E 1025,2 10
23.02.2018 04:00:00 3,3 -1,3 29 16 32 18 E 1025,3 10
23.02.2018 03:00:00 3,4 -0,8 28 15 29 16 E 1025,3 10
23.02.2018 02:00:00 3,5 -0,5 28 15 29 16 ESE 1025,6 10
23.02.2018 01:00:00 3,9 0,7 26 14 32 18 ESE 1025,9 10
23.02.2018 00:00:00 4,4 1,4 29 16 32 18 NE 1025,7 10
22.02.2018 23:00:00 4,4 0,6 29 16 29 16 NE 1026,0 10
22.02.2018 22:00:00 4,3 0,0 26 14 29 16 NE 1026,1 10
22.02.2018 21:00:00 4,2 -0,2 26 14 32 18 ENE 1026,1 10
22.02.2018 20:00:00 4,7 0,0 22 12 29 16 ENE 1026,3 38
22.02.2018 19:00:00 4,2 -0,2 28 15 29 16 NE 1026,2 10
22.02.2018 18:00:00 3,7 -1,6 24 13 29 16 NE 1026,3 10
22.02.2018 17:00:00 3,9 -3,1 21 11 22 12 NE 1026,2 10
22.02.2018 16:00:00 4,6 -2,7 14 8 18 10 ENE 1026,4 27
22.02.2018 15:00:00 3,8 -4,4 18 10 22 12 E 1026,8 10
22.02.2018 14:00:00 3,6 -4,3 21 11 22 12 E 1027,3 10
22.02.2018 13:00:00 3,6 -4,6 21 11 22 12 E 1027,7 10
22.02.2018 12:00:00 3,4 -4,6 24 13 25 14 E 1027,9 10
22.02.2018 11:00:00 3,3 -4,1 24 13 25 14 E 1027,8 10
22.02.2018 10:00:00 3,2 -4,5 26 14 25 14 E 1027,7 10
22.02.2018 09:00:00 3,0 -4,6 28 15 29 16 E 1027,6 10
22.02.2018 08:00:00 3,0 -4,5 29 16 32 18 E 1027,4 10
22.02.2018 07:00:00 3,0 -4,1 28 15 32 18 E 1027,1 10
22.02.2018 06:00:00 3,1 -3,8 29 16 32 18 E 1027,0 10
22.02.2018 05:00:00 3,0 -4,2 28 15 32 18 E 1027,0 10
22.02.2018 04:00:00 2,9 -3,5 25 14 32 18 E 1027,1 22
22.02.2018 03:00:00 3,1 -3,2 31 17 29 16 E 1027,2 10
22.02.2018 02:00:00 3,2 -2,8 28 15 29 16 E 1027,4 10
22.02.2018 01:00:00 3,5 -3,4 29 16 29 16 E 1027,5 10
22.02.2018 00:00:00 3,6 -1,7 28 15 29 16 E 1027,6 10
21.02.2018 23:00:00 3,7 -1,5 28 15 29 16 E 1027,9 10
21.02.2018 22:00:00 3,7 -1,8 28 15 29 16 ENE 1027,8 10
21.02.2018 21:00:00 4,4 -0,8 28 15 29 16 ENE 1027,6 10
21.02.2018 20:00:00 4,4 -0,9 24 13 25 14 ENE 1027,2 10
21.02.2018 19:00:00 4,3 0,1 22 12 25 14 E 1027,0 10
21.02.2018 18:00:00 4,6 0,0 15 8 18 10 ENE 1026,7 10
21.02.2018 17:00:00 4,8 0,7 13 7 18 10 NE 1026,7 10
21.02.2018 16:00:00 4,7 1,1 9 5 14 8 ENE 1026,8 9
21.02.2018 15:00:00 4,1 0,8 5 3 7 4 ENE 1027,0 8
21.02.2018 14:00:00 4,1 0,8 9 5 14 8 E 1027,5 7
21.02.2018 13:00:00 4,6 0,6 11 6 14 8 ESE 1027,9 10
21.02.2018 12:00:00 5,0 0,5 7 4 11 6 E 1028,0 11
21.02.2018 11:00:00 5,1 0,5 2 1 4 2 - 1028,0 10
21.02.2018 10:00:00 6,1 0,4 2 1 7 4 ENE 1027,8 5
21.02.2018 09:00:00 5,2 -0,3 5 3 7 4 E 1027,5 7
21.02.2018 08:00:00 4,8 -0,3 5 3 7 4 E 1027,1 10
21.02.2018 07:00:00 4,7 -0,4 5 3 7 4 ENE 1027,0 10
21.02.2018 06:00:00 4,7 -0,4 8 4 11 6 E 1027,2 10
21.02.2018 05:00:00 4,6 -0,6 9 5 11 6 E 1027,2 10
21.02.2018 04:00:00 5,1 0,2 11 6 14 8 NE 1027,4 10
21.02.2018 03:00:00 5,1 0,1 11 6 14 8 ENE 1027,1 10
21.02.2018 02:00:00 5,1 0,2 15 8 22 12 ENE 1026,7 10
21.02.2018 01:00:00 5,5 0,8 18 10 22 12 ENE 1026,4 9
21.02.2018 00:00:00 5,2 0,7 22 12 25 14 ENE 1026,0 10
20.02.2018 23:00:00 5,0 0,7 24 13 29 16 NE 1025,8 8
20.02.2018 22:00:00 4,8 1,1 26 14 29 16 NE 1025,2 8
20.02.2018 21:00:00 4,8 0,8 29 16 29 16 NE 1024,7 10
20.02.2018 20:00:00 4,5 0,3 26 14 29 16 NNE 1024,3 7
20.02.2018 19:00:00 4,5 0,4 22 12 22 12 NE 1023,4 7
20.02.2018 18:00:00 5,0 0,6 16 9 18 10 ENE 1022,2 8
20.02.2018 17:00:00 4,6 -0,4 15 8 18 10 E 1021,4 10
20.02.2018 16:00:00 4,8 -0,3 14 8 18 10 ESE 1020,7 11
20.02.2018 15:00:00 4,6 -0,1 15 8 22 12 SE 1020,7 10
20.02.2018 14:00:00 4,3 -0,5 16 9 22 12 SE 1020,3 8
20.02.2018 13:00:00 4,3 -0,2 16 9 18 10 SE 1020,2 8
20.02.2018 12:00:00 4,5 -0,2 16 9 18 10 SSE 1020,0 7
20.02.2018 11:00:00 4,5 0,0 15 8 18 10 SSE 1019,7 9
20.02.2018 10:00:00 4,6 -0,2 14 8 22 12 SSE 1019,3 11
20.02.2018 09:00:00 4,5 -0,3 21 11 22 12 SSE 1019,3 10
20.02.2018 08:00:00 4,6 -1,3 18 10 22 12 SE 1018,9 10
20.02.2018 07:00:00 5,1 0,4 21 11 22 12 ESE 1018,9 10
20.02.2018 06:00:00 5,3 0,6 26 14 25 14 ESE 1018,5 10
20.02.2018 05:00:00 5,4 1,7 21 11 22 12 E 1018,7 10
20.02.2018 04:00:00 5,2 2,2 21 11 18 10 ESE 1018,6 10
20.02.2018 03:00:00 5,3 3,1 21 11 18 10 ESE 1018,7 7
20.02.2018 02:00:00 5,3 3,8 13 7 14 8 ESE 1018,7 6
20.02.2018 01:00:00 4,5 3,3 13 7 18 10 SE 1018,5 2,9
20.02.2018 00:00:00 4,8 3,5 13 7 14 8 SE 1018,4 5
19.02.2018 23:00:00 4,6 3,1 13 7 14 8 SSE 1018,0 6
19.02.2018 22:00:00 4,5 2,9 13 7 18 10 SE 1017,9 5
19.02.2018 21:00:00 4,5 3,0 21 11 22 12 SSE 1017,8 4,9
19.02.2018 20:00:00 4,7 3,1 16 9 18 10 SSE 1017,8 5
19.02.2018 19:00:00 4,7 3,0 18 10 22 12 SSE 1017,7 4,8
19.02.2018 18:00:00 4,6 3,3 21 11 22 12 SSE 1017,1 4,5
19.02.2018 17:00:00 4,6 3,4 18 10 25 14 SSE 1017,0 5
19.02.2018 16:00:00 5,1 3,9 22 12 25 14 SSE 1016,7 6
19.02.2018 15:00:00 5,1 4,2 24 13 22 12 SSE 1016,9 2,8
19.02.2018 14:00:00 5,4 4,0 18 10 22 12 SSE 1017,1 3,2
19.02.2018 13:00:00 5,8 4,3 21 11 22 12 SSE 1017,2 5
19.02.2018 12:00:00 6,3 4,8 22 12 22 12 S 1017,4 7
19.02.2018 11:00:00 6,2 4,8 22 12 22 12 S 1017,5 6
19.02.2018 10:00:00 6,3 5,0 24 13 25 14 S 1017,5 5
19.02.2018 09:00:00 6,4 4,8 28 15 25 14 S 1017,9 7
19.02.2018 08:00:00 6,4 4,8 29 16 29 16 S 1017,8 6
19.02.2018 07:00:00 6,4 4,7 25 14 29 16 S 1017,9 8
19.02.2018 06:00:00 6,5 4,4 28 15 29 16 SSW 1018,1 10
19.02.2018 05:00:00 6,7 4,6 29 16 29 16 S 1018,5 10
19.02.2018 04:00:00 6,7 4,6 28 15 25 14 S 1018,7 9
19.02.2018 03:00:00 6,7 4,6 29 16 25 14 S 1019,3 8
19.02.2018 02:00:00 6,7 4,6 26 14 25 14 S 1020,0 8
19.02.2018 01:00:00 6,7 4,6 26 14 25 14 SSW 1020,6 7
19.02.2018 00:00:00 6,6 4,5 26 14 25 14 S 1020,9 7

tt = Température de l'air
td = dewpoint
ff = Vitesse du vent
fx = gusts
dd = Direction du vent
ppp = reduced air pressure
vv = visibility

stations d'obs. à proximité